Starlink 3240

operational
NORAD ID: 49728 Int'l Des: 2021-115 Owner: SPXS Country: US Constellation: starlink
LEOCIRCULAR

About Starlink 3240

Description loading...

Live Position

Loading 3D Globe...

Upcoming Passes

Altitude History

Altitude vs Time

uPlot chart will show altitude changes over time

Two-Line Element Set

1 49728U 21115E 25257.23641725 .00000101 00000-0 24417-4 0 9995
2 49728 53.2152 231.2510 0001457 86.6381 273.4778 15.08836549208752
Epoch: Sep 14, 2025 • Age: 37 hours

Current Status

Altitude 544.3 km
Velocity 7.60 km/s
Sub-Earth Point 48.63°N, 8.84°E
Launch Date Dec 2, 2021
Age 3.7 years
Type internet

Technical Details

Classification Payload
Mass 290.00 kg
Dry Mass 270.00 kg
Total Mass 290.00 kg
Length 0.20 m
Diameter 2.80 m
Span 9.00 m
Shape Box + pan
Manufacturer SPXS
Bus Type Starlink
Phase Status In Orbit
Owner/State SPXS/US

Large Constellations

Loading constellations...